map of CRE home
CRE - Airport
Location
City:  North Myrtle Beach, South Carolina, United States
Name:Grand Strand Airport
ICAO:KCRE
IATA:CRE
FAA LID:CRE

Details
Type:Airport (Airfield)
Use:Public/Civil
Latitude:3348'42"N (33.811750)
Longitude:7843'26"W (-78.723943)
Datum:WGS 1984
Elevation:31 ft (9 m)
Variation:8.85W (WMM2015v2 magnetic declination)
-0.03 annual change
Runways:1
Longest:5997 × 100 ft (1828 × 30.5 m), paved

Time
Time Zone:UTC-5 (DST-4)
Local Time:

Weather
METAR:KCRE 041353Z 34006KT 10SM CLR 12/06 A3003 RMK AO1 SLP171 T01170061
TAF:KCRE 041124Z 0412/0512 36008KT P6SM SKC
FM050000 34003KT P6SM SKC

Related Locations
Nearby:
Farthest:MQZ: 11650 mi / 18749 km
Margaret River [Margaret River Airport], WA, AU

Find:

   beyond  
but within

Other Information
Maps:
NOTAMs:
Links:
Sources:

  
  • flag of United States
  • flag of South Carolina
  

Airport Diagram

Airport diagram for CRE

Airport diagram PDF from FAA

Sectional Chart

Flight Planning
at skyvector.com

Satellite Image

Google Maps Satellite view

 

Copyright © 2004-2019 Karl L. Swartz. All rights reserved.
The Great Circle Mapper name and logo are trademarks of the Great Circle Mapper.
All other trademarks mentioned herein belong to their respective owners.
Please see credits for attibutions and further copyright information.

  Follow gcmap on Facebook Follow gcmap on Twitter GCmap on LinkedIn

hCard Microformat

Geo Microformat